TimeCDT,TemperatureF,Dew PointF,Humidity,Sea Level PressureIn,VisibilityMPH,Wind Direction,Wind SpeedMPH,Gust SpeedMPH,PrecipitationIn,Events,Conditions,WindDirDegrees,DateUTC
12:54 AM,37.0,28.0,70,30.12,9.0,NNW,9.2,-,N/A,,Clear,340,2012-11-03 05:54:00
1:54 AM,35.1,28.0,76,30.12,9.0,North,9.2,-,N/A,,Clear,350,2012-11-03 06:54:00
2:54 AM,33.8,28.4,81,30.12,9.0,NNW,8.1,-,N/A,,Clear,340,2012-11-03 07:54:00
3:54 AM,34.0,28.0,79,30.14,8.0,NNW,9.2,-,N/A,,Clear,340,2012-11-03 08:54:00
4:54 AM,28.9,26.1,89,30.16,8.0,North,5.8,-,N/A,,Clear,350,2012-11-03 09:54:00
5:54 AM,32.0,28.0,85,30.19,8.0,NNW,6.9,-,N/A,,Clear,330,2012-11-03 10:54:00
6:54 AM,32.0,27.0,82,30.22,8.0,NW,4.6,-,N/A,,Clear,320,2012-11-03 11:54:00
7:54 AM,27.0,25.0,92,30.23,7.0,Calm,Calm,-,N/A,,Clear,0,2012-11-03 12:54:00
8:54 AM,32.0,27.0,82,30.25,6.0,NNW,3.5,-,N/A,,Haze,340,2012-11-03 13:54:00
9:54 AM,37.0,30.9,79,30.26,6.0,Calm,Calm,-,N/A,,Haze,0,2012-11-03 14:54:00
10:54 AM,44.1,33.1,65,30.25,7.0,North,3.5,-,N/A,,Clear,350,2012-11-03 15:54:00
11:54 AM,48.0,32.0,54,30.25,8.0,NW,3.5,-,N/A,,Clear,320,2012-11-03 16:54:00
12:54 PM,51.1,32.0,48,30.25,8.0,Calm,Calm,-,N/A,,Clear,0,2012-11-03 17:54:00
1:54 PM,53.1,32.0,45,30.23,8.0,Calm,Calm,-,N/A,,Partly Cloudy,0,2012-11-03 18:54:00
2:54 PM,54.0,33.1,45,30.21,8.0,NNW,5.8,-,N/A,,Clear,330,2012-11-03 19:54:00
3:54 PM,55.0,34.0,45,30.20,7.0,Variable,3.5,-,N/A,,Clear,0,2012-11-03 20:54:00
4:54 PM,55.0,35.1,47,30.21,7.0,Calm,Calm,-,N/A,,Clear,0,2012-11-03 21:54:00
5:54 PM,53.1,35.1,50,30.20,7.0,Calm,Calm,-,N/A,,Clear,0,2012-11-03 22:54:00
6:54 PM,45.0,34.0,65,30.22,8.0,ENE,3.5,-,N/A,,Clear,70,2012-11-03 23:54:00
7:54 PM,45.0,34.0,65,30.24,7.0,Calm,Calm,-,N/A,,Clear,0,2012-11-04 00:54:00
8:54 PM,37.0,32.0,82,30.23,7.0,Calm,Calm,-,N/A,,Partly Cloudy,0,2012-11-04 01:54:00
9:54 PM,41.0,35.1,79,30.24,7.0,Calm,Calm,-,N/A,,Overcast,0,2012-11-04 02:54:00
10:54 PM,39.9,33.1,77,30.23,4.0,Calm,Calm,-,N/A,,Haze,0,2012-11-04 03:54:00
11:54 PM,39.0,33.1,79,30.22,4.0,Calm,Calm,-,N/A,,Haze,0,2012-11-04 04:54:00